Tiempo cada hora Dabroszyn

Hoy, 4 Agosto, Miércoles

Tiempo Temperatura Precipitaciones Viento Presión Humedad
00:00 +16°C° 0.1 mm 1 mps 751 mmHg 81%
01:00 +15°C° 0 mm 1 mps 751 mmHg 85%
02:00 +16°C° 0 mm 1 mps 751 mmHg 85%
03:00 +16°C° 0 mm 1 mps 750 mmHg 85%
04:00 +16°C° 0 mm 1 mps 750 mmHg 85%
05:00 +16°C° 0.3 mm 1 mps 750 mmHg 86%
06:00 +16°C° 0.3 mm 1 mps 751 mmHg 87%
07:00 +16°C° 0.3 mm 1 mps 751 mmHg 88%
08:00 +16°C° 0.3 mm 1 mps 751 mmHg 87%
09:00 +18°C° 0.3 mm 1 mps 751 mmHg 87%
10:00 +18°C° 0.3 mm 1 mps 751 mmHg 86%
11:00 +19°C° 0.2 mm 1 mps 751 mmHg 81%
12:00 +20°C° 0.2 mm 1 mps 751 mmHg 76%
13:00 +21°C° 0.2 mm 1 mps 751 mmHg 72%
14:00 +21°C° 0.4 mm 1 mps 751 mmHg 69%
15:00 +22°C° 0.4 mm 1 mps 751 mmHg 65%
16:00 +22°C° 0.4 mm 1 mps 751 mmHg 62%
17:00 +22°C° 0.1 mm 1 mps 750 mmHg 67%
18:00 +20°C° 0.1 mm 2 mps 750 mmHg 71%
19:00 +19°C° 0.1 mm 2 mps 750 mmHg 75%
20:00 +18°C° 0 mm 2 mps 750 mmHg 78%
21:00 +17°C° 0 mm 2 mps 751 mmHg 82%
22:00 +16°C° 0 mm 2 mps 751 mmHg 85%
23:00 +16°C° 0 mm 2 mps 751 mmHg 87%

Mañana, 5 Agosto, Jueves

Tiempo Temperatura Precipitaciones Viento Presión Humedad
00:00 +15°C° 0 mm 2 mps 751 mmHg 88%
01:00 +15°C° 0 mm 2 mps 750 mmHg 90%
02:00 +15°C° 0 mm 2 mps 750 mmHg 91%
03:00 +14°C° 0 mm 2 mps 750 mmHg 92%
04:00 +14°C° 0 mm 2 mps 750 mmHg 93%
05:00 +14°C° 0 mm 3 mps 750 mmHg 88%
06:00 +16°C° 0 mm 3 mps 750 mmHg 83%
07:00 +17°C° 0 mm 3 mps 750 mmHg 79%
08:00 +19°C° 0 mm 4 mps 750 mmHg 73%
09:00 +20°C° 0 mm 4 mps 749 mmHg 67%
10:00 +22°C° 0 mm 4 mps 749 mmHg 61%
11:00 +22°C° 0 mm 4 mps 749 mmHg 59%
12:00 +22°C° 0 mm 4 mps 749 mmHg 56%
13:00 +23°C° 0 mm 4 mps 748 mmHg 54%
14:00 +22°C° 0.1 mm 4 mps 748 mmHg 57%
15:00 +22°C° 0.1 mm 3 mps 748 mmHg 60%
16:00 +21°C° 0.1 mm 3 mps 748 mmHg 63%
17:00 +20°C° 0.6 mm 3 mps 747 mmHg 70%
18:00 +19°C° 0.6 mm 3 mps 747 mmHg 77%
19:00 +18°C° 0.6 mm 2 mps 747 mmHg 84%
20:00 +18°C° 0.2 mm 2 mps 747 mmHg 85%
21:00 +17°C° 0.2 mm 2 mps 747 mmHg 87%
22:00 +18°C° 0.2 mm 1 mps 746 mmHg 88%
23:00 +17°C° 0.7 mm 2 mps 746 mmHg 90%

Pasado mañana, 6 Agosto, Viernes

Tiempo Temperatura Precipitaciones Viento Presión Humedad
00:00 +16°C° 0.7 mm 2 mps 746 mmHg 92%
01:00 +16°C° 0.7 mm 3 mps 746 mmHg 93%
02:00 +16°C° 0.9 mm 3 mps 746 mmHg 94%
03:00 +16°C° 0.9 mm 3 mps 746 mmHg 94%
04:00 +16°C° 0.9 mm 3 mps 746 mmHg 95%
05:00 +16°C° 0 mm 3 mps 746 mmHg 93%
06:00 +16°C° 0 mm 3 mps 746 mmHg 92%
07:00 +16°C° 0 mm 3 mps 746 mmHg 90%
08:00 +16°C° 0 mm 3 mps 746 mmHg 87%
09:00 +17°C° 0 mm 3 mps 746 mmHg 84%
10:00 +17°C° 0 mm 3 mps 747 mmHg 81%
11:00 +18°C° 0 mm 2 mps 747 mmHg 77%
12:00 +19°C° 0 mm 2 mps 747 mmHg 73%
13:00 +19°C° 0 mm 2 mps 747 mmHg 69%
14:00 +21°C° 0 mm 1 mps 747 mmHg 65%
15:00 +22°C° 0 mm 1 mps 747 mmHg 61%
16:00 +23°C° 0 mm 1 mps 747 mmHg 57%
17:00 +21°C° 0 mm 2 mps 747 mmHg 63%
18:00 +20°C° 0 mm 2 mps 747 mmHg 68%
19:00 +19°C° 0 mm 3 mps 747 mmHg 74%
20:00 +18°C° 0 mm 3 mps 747 mmHg 79%
21:00 +16°C° 0 mm 3 mps 748 mmHg 83%
22:00 +14°C° 0 mm 3 mps 748 mmHg 88%
23:00 +14°C° 0 mm 3 mps 748 mmHg 88%

7 Agosto, Sábado

Tiempo Temperatura Precipitaciones Viento Presión Humedad
00:00 +14°C° 0 mm 3 mps 748 mmHg 88%
01:00 +14°C° 0 mm 3 mps 748 mmHg 89%
02:00 +14°C° 0 mm 3 mps 748 mmHg 89%
03:00 +14°C° 0 mm 3 mps 748 mmHg 88%
04:00 +14°C° 0 mm 3 mps 748 mmHg 88%
05:00 +16°C° 0 mm 3 mps 748 mmHg 84%
06:00 +18°C° 0 mm 3 mps 748 mmHg 79%
07:00 +19°C° 0 mm 3 mps 748 mmHg 75%
08:00 +21°C° 0.1 mm 3 mps 748 mmHg 69%
09:00 +22°C° 0.1 mm 3 mps 748 mmHg 64%
10:00 +25°C° 0.1 mm 3 mps 748 mmHg 58%
11:00 +26°C° 0.1 mm 3 mps 748 mmHg 54%
12:00 +27°C° 0.1 mm 3 mps 748 mmHg 50%
13:00 +28°C° 0.1 mm 3 mps 748 mmHg 45%
14:00 +28°C° 0 mm 3 mps 748 mmHg 45%
15:00 +28°C° 0 mm 3 mps 748 mmHg 45%
16:00 +27°C° 0 mm 3 mps 747 mmHg 45%
17:00 +26°C° 0 mm 3 mps 747 mmHg 49%
18:00 +25°C° 0 mm 2 mps 747 mmHg 53%
19:00 +24°C° 0 mm 2 mps 747 mmHg 57%
20:00 +22°C° 0 mm 3 mps 747 mmHg 59%
21:00 +22°C° 0 mm 3 mps 748 mmHg 61%
22:00 +21°C° 0 mm 3 mps 748 mmHg 62%
23:00 +20°C° 0 mm 3 mps 747 mmHg 65%

8 Agosto, Domingo

Tiempo Temperatura Precipitaciones Viento Presión Humedad
00:00 +20°C° 0 mm 4 mps 747 mmHg 68%
01:00 +20°C° 0 mm 4 mps 747 mmHg 71%
02:00 +20°C° 0 mm 4 mps 746 mmHg 70%
03:00 +20°C° 0 mm 5 mps 746 mmHg 69%
04:00 +20°C° 0 mm 6 mps 745 mmHg 68%
05:00 +21°C° 0 mm 6 mps 746 mmHg 67%
06:00 +21°C° 0 mm 6 mps 746 mmHg 67%
07:00 +22°C° 0 mm 7 mps 746 mmHg 66%
08:00 +21°C° 0.3 mm 7 mps 747 mmHg 72%
09:00 +20°C° 0.3 mm 7 mps 748 mmHg 78%
10:00 +17°C° 0.3 mm 7 mps 749 mmHg 85%
11:00 +20°C° 0 mm 7 mps 749 mmHg 75%
12:00 +22°C° 0 mm 6 mps 750 mmHg 65%
13:00 +24°C° 0 mm 6 mps 750 mmHg 55%
14:00 +25°C° 0 mm 5 mps 751 mmHg 53%
15:00 +25°C° 0 mm 5 mps 751 mmHg 51%
16:00 +25°C° 0 mm 4 mps 752 mmHg 50%
17:00 +23°C° 0 mm 4 mps 752 mmHg 53%
18:00 +22°C° 0 mm 3 mps 752 mmHg 57%
19:00 +21°C° 0 mm 2 mps 752 mmHg 60%
20:00 +21°C° 0 mm 2 mps 753 mmHg 60%
21:00 +20°C° 0 mm 2 mps 753 mmHg 60%
22:00 +20°C° 0 mm 2 mps 754 mmHg 61%
23:00 +19°C° 0 mm 2 mps 754 mmHg 62%

9 Agosto, Lunes

Tiempo Temperatura Precipitaciones Viento Presión Humedad
00:00 +18°C° 0 mm 2 mps 754 mmHg 63%
01:00 +18°C° 0 mm 3 mps 754 mmHg 65%
02:00 +17°C° 0 mm 2 mps 754 mmHg 67%
03:00 +17°C° 0 mm 2 mps 754 mmHg 70%
04:00 +16°C° 0 mm 2 mps 755 mmHg 72%
05:00 +17°C° 0 mm 2 mps 755 mmHg 70%
06:00 +18°C° 0 mm 2 mps 755 mmHg 67%
07:00 +20°C° 0 mm 2 mps 755 mmHg 65%
08:00 +21°C° 0 mm 2 mps 755 mmHg 58%
09:00 +24°C° 0 mm 3 mps 755 mmHg 52%
10:00 +25°C° 0 mm 3 mps 755 mmHg 45%
11:00 +26°C° 0 mm 3 mps 755 mmHg 42%
12:00 +27°C° 0 mm 4 mps 755 mmHg 39%
13:00 +28°C° 0 mm 4 mps 755 mmHg 35%
14:00 +28°C° 0 mm 4 mps 754 mmHg 34%
15:00 +28°C° 0 mm 3 mps 754 mmHg 33%
16:00 +28°C° 0 mm 3 mps 754 mmHg 32%
17:00 +27°C° 0 mm 3 mps 754 mmHg 37%
18:00 +26°C° 0 mm 2 mps 754 mmHg 42%
19:00 +24°C° 0 mm 2 mps 754 mmHg 47%
20:00 +24°C° 0 mm 1 mps 754 mmHg 48%
21:00 +23°C° 0 mm 1 mps 754 mmHg 49%
22:00 +20°C° 0 mm 0 mps 754 mmHg 49%
23:00 +21°C° 0.1 mm 1 mps 754 mmHg 54%
Mostrar más

Necesitamos Su Consentimiento

Meteoprog y nuestros Proveedores de Servicios pueden almacenar y acceder a sus datos personales como cookies, identificadores de dispositivo u otras tecnologías similares de su dispositivo y procesar dichos datos para personalizar contenido y anuncios, además de ofrecer funciones de redes sociales y analizar el tráfico.

  • Almacenar y/o acceder a información en su dispositivo

    Se puede almacenar o acceder a cookies, identificadores de dispositivo u otra información de su dispositivo para los fines anteriormente indicados.

  • Anuncios y contenido personalizados, medición de anuncios y contenido, percepciones del público, y desarrollo de productos

    Los anuncios y el contenido pueden personalizarse en base a su perfil. Se pueden añadir más datos para personalizar mejor los anuncios y contenidos. Se puede medir el rendimiento de los anuncios y contenidos. Se puede obtener la percepción sobre el público que ha visto los anuncios y contenidos. Dichos datos pueden usarse para desarrollar o mejorar la experiencia del usuario, sistemas y software.

Al hacer clic en ‘Estoy De Acuerdo’ usted permitirá el uso de las cookies, identificadores de dispositivo, balizas web u otras tecnologías similares indicadas. Su configuración puede cambiarse desde el navegador de su dispositivo.

Para ciertos fines, los intereses legítimos pueden ser considerados por encima del consentimiento. Puede leer más sobre ello en nuestra Política de Privacidad y Cookies.